User: anonymous   Login
Location: Unspecified
(0.0000°N, 0.0000°E)
Time: 09:32:18
(UTC+00:00)
Language:

Nimbus 7 - Orbit

View from above orbital plane
View from above orbital plane
View from above satellite
View from above satellite

Ground track
Ground track

The orbit data is extracted from the following two-line orbital elements,

1 11080U 78098A   18018.47425814 -.00000016 +00000-0 +26917-4 0  9992
2 11080 099.5044 157.5188 0009732 104.1855 256.0381 13.84292043981675
Epoch (UTC): 18 January 2018 11:22:55
Eccentricity: 0.0009732
inclination: 99.5044°
perigee height: 941 km
apogee height: 956 km
right ascension of ascending node: 157.5188°
argument of perigee: 104.1855°
revolutions per day: 13.84292043
mean anomaly at epoch: 256.0381°
orbit number at epoch: 98167

The dashed part of the orbit path shows where the satellite is in the earth's shadow,  

DLR